Details From MHRO - Roatan
To MHTG - Tegucigalpa Toncontin Intl
Flight Number -
Tags Novice Generated
Created
Modified
Stats Distance 143 nm / 264 km
Max Altitude 600 ft / 183 m
Waypoints 8
Social Downloads 3
Likes 0
Share VATSIM

Download

Looking for another format? Having issues loading an existing format? Contact us
Advertisement - Login to hide

Notes

Departing runway 24 MHRO. Arriving runway 1 MHTG.

Route

MHRO +16.28_-086.60 +16.24_-086.64 +16.19_-086.67 +16.13_-086.67 +15.37_-086.87 +14.14_-087.19 MHTG

ID Type Via Altitude Latitude Longitude Leg Dist Tot Dist Heading (true) Name
O MHRO APT - 0 ft / 0 m 16.31257˚ -86.53248˚ - 0 nm - -
+16.28_-086.60 LATLON - 600 ft / 183 m 16.28205˚ -86.60084˚ 4 nm 4 nm 245° / 245° -
+16.24_-086.64 LATLON - 600 ft / 183 m 16.24115˚ -86.64353˚ 3 nm 7 nm 225° / 225° -
+16.19_-086.67 LATLON - 600 ft / 183 m 16.18871˚ -86.66906˚ 3 nm 11 nm 205° / 205° -
+16.13_-086.67 LATLON - 600 ft / 183 m 16.13104˚ -86.67438˚ 3 nm 14 nm 185° / 185° -
+15.37_-086.87 LATLON - 600 ft / 183 m 15.36874˚ -86.87014˚ 47 nm 61 nm 194° / 194° -
+14.14_-087.19 LATLON - 600 ft / 183 m 14.13732˚ -87.19025˚ 76 nm 138 nm 194° / 194° -
O MHTG APT - 0 ft / 0 m 14.06884˚ -87.21439˚ 4 nm 142 nm 199° / 199° -

Altitude Profile

Advertisement - Login to hide

MHRO

Details ICAO MHRO (RTB)
Name Roatan
Region Honduras
Timezone Unknown (UTC+0.0)
Stats Elevation 18 ft / 5 m (AMSL)
Location 16.316816° -86.522961°
Runways 1
Magnetic Variation 1.471° W

METAR

MHRO 270400Z 09010KT 9999 FEW020 SCT080 28/25 Q1009 A2980 NOSIG

Decode

TAF

TAF TAF MHRO 261700Z 2618/2718 34010KT 9999 FEW020TCU TX32/2619Z TN27/2712Z BECMG 2723/2701 34012KT 8000 -RASCT022CB SCT080 BECMG 2705/2707 05010KT 9999 SCT020

Decode

Departure Runways

ID Width Length Bearing (true) Bearing (mag) Surface Threshold Offset Overrun Length
07 148 ft / 45 m 7,353 ft / 2,241 m 65.06° 66.53° Asphalt 200 ft / 61 m 0 ft / 0 m
25 148 ft / 45 m 7,353 ft / 2,241 m 245.06° 246.53° Asphalt 0 ft / 0 m 0 ft / 0 m

MHTG

Details ICAO MHTG (TGU)
Name Tegucigalpa Toncontin Intl
Region Honduras
Timezone America/Tegucigalpa (UTC-6.0)
Stats Elevation 3,294 ft / 1,004 m (AMSL)
Location 14.060883° -87.217197°
Runways 1
Magnetic Variation 0.723° W

METAR

MHTG 270400Z 18004KT 8000 4000NW -RA FEW008 SCT026 FEW028CB OVC080 20/19 Q1016 A3000 RETS NOSIG

Decode

TAF

TAF MHTG 261700Z 2618/2718 20004KT 9999 SCT026TCU SCT080 TX28/2619Z TN17/2712Z BECMG 2622/2700 7000 -TSRA SCT026TCU SCT028CB BECMG 2706/2708 8000 VCSH BKN026 SCT080 BECMG 2712/2714 7000 FEW007 SCT028 BECMG 2714/2716 00000KT 9999 SCT058TCU

Decode

Destination Runways

ID Width Length Bearing (true) Bearing (mag) Surface Threshold Offset Overrun Length
02 148 ft / 45 m 6,140 ft / 1,872 m 18.87° 19.59° Asphalt 670 ft / 204 m 100 ft / 30 m
20 148 ft / 45 m 6,140 ft / 1,872 m 198.87° 199.59° Asphalt 0 ft / 0 m 200 ft / 61 m

Popular Alternatives